Location: Brompton
(51.4000°N, 0.5333°E)
Time: 16:28:55
(UTC+00:00)

Cosmos 1680 Rocket - Pass Details

Date: 11 May 2021
Orbit: 759 x 782 km, 74.1° (Epoch: 15 June)

Event Time Altitude Azimuth Distance (km) Brightness Sun altitude
Rises 22:04:21 0° 334° (NNW) 3,278 8.6 -16.4°
Reaches altitude 10° 22:06:45 10° 333° (NNW) 2,347 7.4 -16.6°
Maximum altitude 22:12:05 77° 248° (WSW) 807 3.6 -17.0°
Enters shadow 22:14:51 29° 167° (SSE) 1,404 4.3 -17.2°
